sat.trackr.live / text

‹ back to catalog

STARLINK-4676

NORAD 53598 · 2022-104L

PAYLOAD ACTIVE UNKNOWN

§ Identity

Operator
Country
US
Launch date
2022-08-28
Launch site
AFETR
Launch vehicle
Mass (kg)
RCS (m²)

Purposes: comms

External: N2YO · Heavens-Above · Gunter

§ Orbital elements

Epoch: 2026-05-25T00:46:01.185888Z

Period
95.44 min
Inclination
53.2141°
Eccentricity
0.0001310
Mean motion
15.08831266 rev/d
Perigee alt
538.9 km
Apogee alt
540.7 km
Semi-major
6,917.9 km
B*
1.4636e-6
RAAN
261.1445°
Arg perigee
90.3170°
Mean anomaly
269.7972°
Rev number
20,714

§ Raw data

STARLINK-46761 53598U 22104L   26145.03195817 -.00000265  00000+0  14636-5 0  99992 53598  53.2141 261.1445 0001310  90.3170 269.7972 15.08831266207142

JSON: /api/v1/satellites/53598 · /tle

For live sub-satellite position, see the globe view (requires WebGL).

§ Visibility from observer

Set your observer location to see the next 7 days of passes ≥ 10°. The values pass through the URL so the page stays shareable.

No JS? Fill the form by hand. The geolocation button needs JavaScript.